Location: Sternwarte ZA, Rosenfeld-Brittheim
(48.2889°N, 8.6789°E)
Time: 04:38:56
(UTC+02:00)

ISS - Visible Passes

Search period start: 28 July 2017 00:00
Search period end: 07 August 2017 00:00
Orbit: 400 x 408 km, 51.6° (Epoch: 28 July)

Date Brightness Start Highest point End Pass type
(mag) Time Alt. Az. Time Alt. Az. Time Alt. Az.
28 Jul -3.0 00:43:34 10° WNW 00:46:46 49° N 00:46:57 48° NNE visible
28 Jul -3.4 22:14:21 10° W 22:17:36 66° NNW 22:20:51 10° ENE visible
28 Jul -2.7 23:51:12 10° WNW 23:54:22 44° N 23:56:09 22° ENE visible
29 Jul -1.5 01:27:47 10° WNW 01:28:46 18° WNW 01:28:46 18° WNW visible
29 Jul -2.7 22:58:48 10° WNW 23:01:57 44° N 23:05:06 10° ENE visible
30 Jul -3.0 00:35:27 10° WNW 00:38:00 48° NW 00:38:00 48° NW visible
30 Jul -2.9 22:06:21 10° W 22:09:32 49° N 22:12:43 10° ENE visible
30 Jul -3.1 23:43:07 10° WNW 23:46:20 52° NNE 23:47:17 36° ENE visible
31 Jul -1.0 01:19:39 10° WNW 01:19:54 12° WNW 01:19:54 12° WNW visible
31 Jul -2.8 22:50:44 10° WNW 22:53:54 45° N 22:56:35 13° ENE visible
01 Aug -2.4 00:27:17 10° WNW 00:29:12 32° WNW 00:29:12 32° WNW visible
01 Aug -2.7 21:58:18 10° WNW 22:01:27 44° N 22:04:36 10° ENE visible
01 Aug -3.8 23:34:56 10° WNW 23:38:11 73° NNE 23:38:31 65° ENE visible
02 Aug -3.3 22:42:34 10° WNW 22:45:46 56° NNE 22:47:51 20° E visible
03 Aug -1.8 00:19:07 10° WNW 00:20:28 21° W 00:20:28 21° W visible
03 Aug -2.9 21:50:09 10° WNW 21:53:19 47° N 21:56:29 10° E visible
03 Aug -3.8 23:26:40 10° WNW 23:29:49 67° SW 23:29:49 67° SW visible
04 Aug -3.9 22:34:16 10° WNW 22:37:33 82° NNE 22:39:10 27° ESE visible
05 Aug -1.2 00:11:09 10° W 00:11:48 14° W 00:11:48 14° W visible
05 Aug -3.4 21:41:53 10° WNW 21:45:06 60° NNE 21:48:20 10° E visible
05 Aug -2.8 23:18:28 10° WNW 23:21:11 34° SW 23:21:11 34° SW visible
06 Aug -3.6 22:25:57 10° WNW 22:29:10 57° SSW 22:30:35 29° SE visible
